TimeMDT,TemperatureF,Dew PointF,Humidity,Sea Level PressureIn,VisibilityMPH,Wind Direction,Wind SpeedMPH,Gust SpeedMPH,PrecipitationIn,Events,Conditions,WindDirDegrees,DateUTC
12:53 AM,64.0,30.9,29,29.81,10.0,WSW,8.1,-,N/A,,Clear,240,2012-10-03 06:53:00
1:53 AM,69.1,30.0,23,29.79,10.0,West,9.2,-,N/A,,Clear,280,2012-10-03 07:53:00
2:53 AM,66.9,30.0,25,29.79,10.0,West,9.2,-,N/A,,Clear,270,2012-10-03 08:53:00
3:53 AM,64.9,30.9,28,29.79,10.0,West,9.2,-,N/A,,Clear,270,2012-10-03 09:53:00
4:53 AM,59.0,32.0,36,29.82,10.0,SW,6.9,-,N/A,,Clear,230,2012-10-03 10:53:00
5:53 AM,57.9,32.0,37,29.85,10.0,WSW,9.2,-,N/A,,Clear,240,2012-10-03 11:53:00
6:53 AM,57.0,32.0,39,29.87,10.0,West,9.2,-,N/A,,Clear,260,2012-10-03 12:53:00
7:53 AM,60.1,33.1,36,29.89,10.0,West,8.1,-,N/A,,Clear,260,2012-10-03 13:53:00
8:53 AM,68.0,33.1,27,29.90,10.0,West,8.1,-,N/A,,Clear,270,2012-10-03 14:53:00
9:53 AM,77.0,30.9,19,29.91,10.0,WNW,11.5,-,N/A,,Clear,290,2012-10-03 15:53:00
10:53 AM,81.0,30.9,16,29.90,10.0,Variable,4.6,-,N/A,,Clear,0,2012-10-03 16:53:00
11:53 AM,87.1,27.0,11,29.86,10.0,WNW,13.8,20.7,N/A,,Clear,290,2012-10-03 17:53:00
12:53 PM,89.1,26.1,10,29.84,10.0,WNW,17.3,25.3,N/A,,Clear,290,2012-10-03 18:53:00
1:53 PM,90.0,27.0,10,29.81,10.0,WNW,15.0,26.5,N/A,,Clear,300,2012-10-03 19:53:00
2:53 PM,90.0,26.1,10,29.80,10.0,West,15.0,33.4,N/A,,Clear,280,2012-10-03 20:53:00
3:53 PM,89.1,27.0,11,29.81,10.0,West,13.8,31.1,N/A,,Clear,280,2012-10-03 21:53:00
4:53 PM,88.0,27.0,11,29.83,10.0,WNW,20.7,26.5,N/A,,Clear,290,2012-10-03 22:53:00
5:53 PM,86.0,26.1,11,29.86,10.0,West,18.4,24.2,N/A,,Clear,270,2012-10-03 23:53:00
6:53 PM,82.9,27.0,13,29.87,10.0,West,12.7,-,N/A,,Clear,280,2012-10-04 00:53:00
7:53 PM,79.0,28.0,15,29.88,10.0,West,15.0,-,N/A,,Clear,280,2012-10-04 01:53:00
8:53 PM,77.0,28.0,17,29.88,10.0,West,12.7,-,N/A,,Clear,280,2012-10-04 02:53:00
9:53 PM,71.1,28.0,20,29.90,10.0,West,8.1,-,N/A,,Clear,280,2012-10-04 03:53:00
10:53 PM,68.0,28.0,22,29.91,10.0,West,6.9,-,N/A,,Clear,270,2012-10-04 04:53:00
11:53 PM,63.0,30.0,29,29.93,10.0,WSW,6.9,-,N/A,,Clear,240,2012-10-04 05:53:00